Year,Month,Day,Hour,Minute,Value (Times are PST for temperature in C)
2015,08,03,00,00,18.90
2015,08,03,00,01,18.90
2015,08,03,00,02,18.90
2015,08,03,00,03,18.80
2015,08,03,00,04,18.80
2015,08,03,00,05,18.80
2015,08,03,00,06,18.80
2015,08,03,00,07,18.80
2015,08,03,00,08,18.80
2015,08,03,00,09,18.80
2015,08,03,00,10,18.80
2015,08,03,00,11,18.70
2015,08,03,00,12,18.70
2015,08,03,00,13,18.70
2015,08,03,00,14,18.70
2015,08,03,00,15,18.70
2015,08,03,00,16,18.70
2015,08,03,00,17,18.70
2015,08,03,00,18,18.60
2015,08,03,00,19,18.60
2015,08,03,00,20,18.60
2015,08,03,00,21,18.60
2015,08,03,00,22,18.50
2015,08,03,00,23,18.50
2015,08,03,00,24,18.50
2015,08,03,00,25,18.40
2015,08,03,00,26,18.40
2015,08,03,00,27,18.40
2015,08,03,00,28,18.40
2015,08,03,00,29,18.40
2015,08,03,00,30,18.40
2015,08,03,00,31,18.40
2015,08,03,00,32,18.40
2015,08,03,00,33,18.40
2015,08,03,00,34,18.30
2015,08,03,00,35,18.30
2015,08,03,00,36,18.30
2015,08,03,00,37,18.30
2015,08,03,00,38,18.30
2015,08,03,00,39,18.30
2015,08,03,00,40,18.30
2015,08,03,00,41,18.30
2015,08,03,00,42,18.30
2015,08,03,00,43,18.30
2015,08,03,00,44,18.20
2015,08,03,00,45,18.20
2015,08,03,00,46,18.10
2015,08,03,00,47,18.10
2015,08,03,00,48,18.10
2015,08,03,00,49,18.00
2015,08,03,00,50,18.00
2015,08,03,00,51,17.90
2015,08,03,00,52,17.90
2015,08,03,00,53,17.80
2015,08,03,00,54,17.80
2015,08,03,00,55,17.80
2015,08,03,00,56,17.70
2015,08,03,00,57,17.70
2015,08,03,00,58,17.70
2015,08,03,00,59,17.70
2015,08,03,01,00,17.70
2015,08,03,01,01,17.60
2015,08,03,01,02,17.60
2015,08,03,01,03,17.60
2015,08,03,01,04,17.60
2015,08,03,01,05,17.60
2015,08,03,01,06,17.60
2015,08,03,01,07,17.60
2015,08,03,01,08,17.60
2015,08,03,01,09,17.60
2015,08,03,01,10,17.60
2015,08,03,01,11,17.60
2015,08,03,01,12,17.60
2015,08,03,01,13,17.60
2015,08,03,01,14,17.60
2015,08,03,01,15,17.60
2015,08,03,01,16,17.60
2015,08,03,01,17,17.60
2015,08,03,01,18,17.60
2015,08,03,01,19,17.60
2015,08,03,01,20,17.60
2015,08,03,01,21,17.50
2015,08,03,01,22,17.50
2015,08,03,01,23,17.50
2015,08,03,01,24,17.50
2015,08,03,01,25,17.50
2015,08,03,01,26,17.50
2015,08,03,01,27,17.50
2015,08,03,01,28,17.50
2015,08,03,01,29,17.50
2015,08,03,01,30,17.50
2015,08,03,01,31,17.50
2015,08,03,01,32,17.50
2015,08,03,01,33,17.40
2015,08,03,01,34,17.50
2015,08,03,01,35,17.40
2015,08,03,01,36,17.40
2015,08,03,01,37,17.40
2015,08,03,01,38,17.40
2015,08,03,01,39,17.40
2015,08,03,01,40,17.40
2015,08,03,01,41,17.40
2015,08,03,01,42,17.40
2015,08,03,01,43,17.40
2015,08,03,01,44,17.40
2015,08,03,01,45,17.40
2015,08,03,01,46,17.40
2015,08,03,01,47,17.40
2015,08,03,01,48,17.40
2015,08,03,01,49,17.40
2015,08,03,01,50,17.40
2015,08,03,01,51,17.30
2015,08,03,01,52,17.30
2015,08,03,01,53,17.30
2015,08,03,01,54,17.30
2015,08,03,01,55,17.30
2015,08,03,01,56,17.30
2015,08,03,01,57,17.30
2015,08,03,01,58,17.30
2015,08,03,01,59,17.30
2015,08,03,02,00,17.30
2015,08,03,02,01,17.20
2015,08,03,02,02,17.20
2015,08,03,02,03,17.20
2015,08,03,02,04,17.20
2015,08,03,02,05,17.20
2015,08,03,02,06,17.20
2015,08,03,02,07,17.20
2015,08,03,02,08,17.10
2015,08,03,02,09,17.10
2015,08,03,02,10,17.10
2015,08,03,02,11,17.10
2015,08,03,02,12,17.10
2015,08,03,02,13,17.10
2015,08,03,02,14,17.10
2015,08,03,02,15,17.10
2015,08,03,02,16,17.10
2015,08,03,02,17,17.10
2015,08,03,02,18,17.10
2015,08,03,02,19,17.10
2015,08,03,02,20,17.10
2015,08,03,02,21,17.10
2015,08,03,02,22,17.10
2015,08,03,02,23,17.10
2015,08,03,02,24,17.10
2015,08,03,02,25,17.10
2015,08,03,02,26,17.10
2015,08,03,02,27,17.10
2015,08,03,02,28,17.00
2015,08,03,02,29,17.00
2015,08,03,02,30,17.00
2015,08,03,02,31,17.00
2015,08,03,02,32,17.00
2015,08,03,02,33,17.00
2015,08,03,02,34,17.00
2015,08,03,02,35,17.00
2015,08,03,02,36,17.00
2015,08,03,02,37,17.00
2015,08,03,02,38,17.00
2015,08,03,02,39,17.00
2015,08,03,02,40,17.00
2015,08,03,02,41,17.00
2015,08,03,02,42,17.00
2015,08,03,02,43,16.90
2015,08,03,02,44,16.90
2015,08,03,02,45,16.90
2015,08,03,02,46,16.90
2015,08,03,02,47,16.90
2015,08,03,02,48,16.90
2015,08,03,02,49,16.90
2015,08,03,02,50,16.90
2015,08,03,02,51,16.90
2015,08,03,02,52,16.80
2015,08,03,02,53,16.90
2015,08,03,02,54,16.90
2015,08,03,02,55,16.90
2015,08,03,02,56,16.90
2015,08,03,02,57,16.90
2015,08,03,02,58,16.90
2015,08,03,02,59,16.90
2015,08,03,03,00,16.90
2015,08,03,03,01,16.90
2015,08,03,03,02,16.90
2015,08,03,03,03,16.90
2015,08,03,03,04,16.90
2015,08,03,03,05,16.90
2015,08,03,03,06,16.90
2015,08,03,03,07,16.90
2015,08,03,03,08,16.90
2015,08,03,03,09,16.90
2015,08,03,03,10,16.90
2015,08,03,03,11,16.90
2015,08,03,03,12,16.90
2015,08,03,03,13,16.90
2015,08,03,03,14,16.90
2015,08,03,03,15,16.90
2015,08,03,03,16,16.90
2015,08,03,03,17,16.90
2015,08,03,03,18,16.90
2015,08,03,03,19,16.90
2015,08,03,03,20,16.90
2015,08,03,03,21,16.80
2015,08,03,03,22,16.80
2015,08,03,03,23,16.80
2015,08,03,03,24,16.80
2015,08,03,03,25,16.80
2015,08,03,03,26,16.80
2015,08,03,03,27,16.80
2015,08,03,03,28,16.80
2015,08,03,03,29,16.80
2015,08,03,03,30,16.80
2015,08,03,03,31,16.80
2015,08,03,03,32,16.70
2015,08,03,03,33,16.70
2015,08,03,03,34,16.70
2015,08,03,03,35,16.70
2015,08,03,03,36,16.70
2015,08,03,03,37,16.70
2015,08,03,03,38,16.70
2015,08,03,03,39,16.70
2015,08,03,03,40,16.70
2015,08,03,03,41,16.70
2015,08,03,03,42,16.70
2015,08,03,03,43,16.70
2015,08,03,03,44,16.70
2015,08,03,03,45,16.70
2015,08,03,03,46,16.70
2015,08,03,03,47,16.60
2015,08,03,03,48,16.60
2015,08,03,03,49,16.60
2015,08,03,03,50,16.60
2015,08,03,03,51,16.60
2015,08,03,03,52,16.60
2015,08,03,03,53,16.60
2015,08,03,03,54,16.60
2015,08,03,03,55,16.50
2015,08,03,03,56,16.50
2015,08,03,03,57,16.50
2015,08,03,03,58,16.50
2015,08,03,03,59,16.40
2015,08,03,04,00,16.40
2015,08,03,04,01,16.40
2015,08,03,04,02,16.40
2015,08,03,04,03,16.40
2015,08,03,04,04,16.30
2015,08,03,04,05,16.30
2015,08,03,04,06,16.30
2015,08,03,04,07,16.30
2015,08,03,04,08,16.30
2015,08,03,04,09,16.30
2015,08,03,04,10,16.30
2015,08,03,04,11,16.30
2015,08,03,04,12,16.30
2015,08,03,04,13,16.30
2015,08,03,04,14,16.20
2015,08,03,04,15,16.20
2015,08,03,04,16,16.20
2015,08,03,04,17,16.20
2015,08,03,04,18,16.20
2015,08,03,04,19,16.20
2015,08,03,04,20,16.20
2015,08,03,04,21,16.20
2015,08,03,04,22,16.20
2015,08,03,04,23,16.20
2015,08,03,04,24,16.20
2015,08,03,04,25,16.20
2015,08,03,04,26,16.10
2015,08,03,04,27,16.10
2015,08,03,04,28,16.10
2015,08,03,04,29,16.10
2015,08,03,04,30,16.10
2015,08,03,04,31,16.10
2015,08,03,04,32,16.10
2015,08,03,04,33,16.10
2015,08,03,04,34,16.00
2015,08,03,04,35,16.00
2015,08,03,04,36,16.00
2015,08,03,04,37,16.00
2015,08,03,04,38,16.00
2015,08,03,04,39,16.00
2015,08,03,04,40,15.90
2015,08,03,04,41,15.90
2015,08,03,04,42,15.90
2015,08,03,04,43,15.90
2015,08,03,04,44,15.90
2015,08,03,04,45,15.90
2015,08,03,04,46,15.90
2015,08,03,04,47,15.80
2015,08,03,04,48,15.80
2015,08,03,04,49,15.80
2015,08,03,04,50,15.80
2015,08,03,04,51,15.80
2015,08,03,04,52,15.80
2015,08,03,04,53,15.80
2015,08,03,04,54,15.80
2015,08,03,04,55,15.80
2015,08,03,04,56,15.80
2015,08,03,04,57,15.80
2015,08,03,04,58,15.70
2015,08,03,04,59,15.70
2015,08,03,05,00,15.70
2015,08,03,05,01,15.70
2015,08,03,05,02,15.70
2015,08,03,05,03,15.70
2015,08,03,05,04,15.70
2015,08,03,05,05,15.70
2015,08,03,05,06,15.70
2015,08,03,05,07,15.70
2015,08,03,05,08,15.70
2015,08,03,05,09,15.70
2015,08,03,05,10,15.70
2015,08,03,05,11,15.70
2015,08,03,05,12,15.70
2015,08,03,05,13,15.70
2015,08,03,05,14,15.70
2015,08,03,05,15,15.70
2015,08,03,05,16,15.70
2015,08,03,05,17,15.60
2015,08,03,05,18,15.60
2015,08,03,05,19,15.60
2015,08,03,05,20,15.60
2015,08,03,05,21,15.60
2015,08,03,05,22,15.60
2015,08,03,05,23,15.60
2015,08,03,05,24,15.60
2015,08,03,05,25,15.60
2015,08,03,05,26,15.60
2015,08,03,05,27,15.60
2015,08,03,05,28,15.60
2015,08,03,05,29,15.60
2015,08,03,05,30,15.60
2015,08,03,05,31,15.60
2015,08,03,05,32,15.60
2015,08,03,05,33,15.60
2015,08,03,05,34,15.60
2015,08,03,05,35,15.60
2015,08,03,05,36,15.60
2015,08,03,05,37,15.60
2015,08,03,05,38,15.50
2015,08,03,05,39,15.50
2015,08,03,05,40,15.50
2015,08,03,05,41,15.50
2015,08,03,05,42,15.50
2015,08,03,05,43,15.50
2015,08,03,05,44,15.50
2015,08,03,05,45,15.50
2015,08,03,05,46,15.50
2015,08,03,05,47,15.50
2015,08,03,05,48,15.50
2015,08,03,05,49,15.50
2015,08,03,05,50,15.50
2015,08,03,05,51,15.50
2015,08,03,05,52,15.50
2015,08,03,05,53,15.50
2015,08,03,05,54,15.50
2015,08,03,05,55,15.50
2015,08,03,05,56,15.50
2015,08,03,05,57,15.50
2015,08,03,05,58,15.50
2015,08,03,05,59,15.50
2015,08,03,06,00,15.50
2015,08,03,06,01,15.50
2015,08,03,06,02,15.50
2015,08,03,06,03,15.50
2015,08,03,06,04,15.50
2015,08,03,06,05,15.40
2015,08,03,06,06,15.40
2015,08,03,06,07,15.40
2015,08,03,06,08,15.40
2015,08,03,06,09,15.40
2015,08,03,06,10,15.40
2015,08,03,06,11,15.40
2015,08,03,06,12,15.40
2015,08,03,06,13,15.40
2015,08,03,06,14,15.40
2015,08,03,06,15,15.40
2015,08,03,06,16,15.40
2015,08,03,06,17,15.30
2015,08,03,06,18,15.30
2015,08,03,06,19,15.30
2015,08,03,06,20,15.30
2015,08,03,06,21,15.30
2015,08,03,06,22,15.30
2015,08,03,06,23,15.30
2015,08,03,06,24,15.30
2015,08,03,06,25,15.30
2015,08,03,06,26,15.30
2015,08,03,06,27,15.30
2015,08,03,06,28,15.30
2015,08,03,06,29,15.30
2015,08,03,06,30,15.30
2015,08,03,06,31,15.30
2015,08,03,06,32,15.30
2015,08,03,06,33,15.30
2015,08,03,06,34,15.30
2015,08,03,06,35,15.30
2015,08,03,06,36,15.30
2015,08,03,06,37,15.30
2015,08,03,06,38,15.30
2015,08,03,06,39,15.30
2015,08,03,06,40,15.30
2015,08,03,06,41,15.30
2015,08,03,06,42,15.30
2015,08,03,06,43,15.30
2015,08,03,06,44,15.30
2015,08,03,06,45,15.30
2015,08,03,06,46,15.30
2015,08,03,06,47,15.30
2015,08,03,06,48,15.30
2015,08,03,06,49,15.30
2015,08,03,06,50,15.30
2015,08,03,06,51,15.30
2015,08,03,06,52,15.30
2015,08,03,06,53,15.30
2015,08,03,06,54,15.30
2015,08,03,06,55,15.30
2015,08,03,06,56,15.30
2015,08,03,06,57,15.30
2015,08,03,06,58,15.30
2015,08,03,06,59,15.40
2015,08,03,07,00,15.40
2015,08,03,07,01,15.40
2015,08,03,07,02,15.40
2015,08,03,07,03,15.40
2015,08,03,07,04,15.40
2015,08,03,07,05,15.40
2015,08,03,07,06,15.40
2015,08,03,07,07,15.40
2015,08,03,07,08,15.40
2015,08,03,07,09,15.40
2015,08,03,07,10,15.40
2015,08,03,07,11,15.40
2015,08,03,07,12,15.40
2015,08,03,07,13,15.40
2015,08,03,07,14,15.50
2015,08,03,07,15,15.50
2015,08,03,07,16,15.50
2015,08,03,07,17,15.50
2015,08,03,07,18,15.50
2015,08,03,07,19,15.50
2015,08,03,07,20,15.50
2015,08,03,07,21,15.50
2015,08,03,07,22,15.50
2015,08,03,07,23,15.60
2015,08,03,07,24,15.60
2015,08,03,07,25,15.60
2015,08,03,07,26,15.60
2015,08,03,07,27,15.60
2015,08,03,07,28,15.60
2015,08,03,07,29,15.60
2015,08,03,07,30,15.60
2015,08,03,07,31,15.70
2015,08,03,07,32,15.70
2015,08,03,07,33,15.70
2015,08,03,07,34,15.70
2015,08,03,07,35,15.70
2015,08,03,07,36,15.70
2015,08,03,07,37,15.80
2015,08,03,07,38,15.80
2015,08,03,07,39,15.80
2015,08,03,07,40,15.80
2015,08,03,07,41,15.80
2015,08,03,07,42,15.80
2015,08,03,07,43,15.80
2015,08,03,07,44,15.80
2015,08,03,07,45,15.90
2015,08,03,07,46,15.90
2015,08,03,07,47,15.90
2015,08,03,07,48,15.90
2015,08,03,07,49,15.90
2015,08,03,07,50,16.00
2015,08,03,07,51,16.00
2015,08,03,07,52,16.00
2015,08,03,07,53,16.10
2015,08,03,07,54,16.10
2015,08,03,07,55,16.10
2015,08,03,07,56,16.10
2015,08,03,07,57,16.10
2015,08,03,07,58,16.10
2015,08,03,07,59,16.20
2015,08,03,08,00,16.20
2015,08,03,08,01,16.20
2015,08,03,08,02,16.20
2015,08,03,08,03,16.20
2015,08,03,08,04,16.20
2015,08,03,08,05,16.30
2015,08,03,08,06,16.30
2015,08,03,08,07,16.30
2015,08,03,08,08,16.40
2015,08,03,08,09,16.50
2015,08,03,08,10,16.50
2015,08,03,08,11,16.60
2015,08,03,08,12,16.60
2015,08,03,08,13,16.60
2015,08,03,08,14,16.70
2015,08,03,08,15,16.70
2015,08,03,08,16,16.80
2015,08,03,08,17,16.80
2015,08,03,08,18,16.90
2015,08,03,08,19,16.90
2015,08,03,08,20,17.00
2015,08,03,08,21,17.00
2015,08,03,08,22,17.10
2015,08,03,08,23,17.10
2015,08,03,08,24,17.20
2015,08,03,08,25,17.20
2015,08,03,08,26,17.20
2015,08,03,08,27,17.30
2015,08,03,08,28,17.30
2015,08,03,08,29,17.30
2015,08,03,08,30,17.40
2015,08,03,08,31,17.40
2015,08,03,08,32,17.40
2015,08,03,08,33,17.40
2015,08,03,08,34,17.40
2015,08,03,08,35,17.50
2015,08,03,08,36,17.50
2015,08,03,08,37,17.50
2015,08,03,08,38,17.60
2015,08,03,08,39,17.60
2015,08,03,08,40,17.60
2015,08,03,08,41,17.70
2015,08,03,08,42,17.70
2015,08,03,08,43,17.60
2015,08,03,08,44,17.60
2015,08,03,08,45,17.60
2015,08,03,08,46,17.60
2015,08,03,08,47,17.60
2015,08,03,08,48,17.60
2015,08,03,08,49,17.70
2015,08,03,08,50,17.70
2015,08,03,08,51,17.70
2015,08,03,08,52,17.70
2015,08,03,08,53,17.70
2015,08,03,08,54,17.80
2015,08,03,08,55,17.80
2015,08,03,08,56,17.80
2015,08,03,08,57,17.90
2015,08,03,08,58,17.90
2015,08,03,08,59,17.90
2015,08,03,09,00,17.90
2015,08,03,09,01,18.00
2015,08,03,09,02,18.00
2015,08,03,09,03,18.10
2015,08,03,09,04,18.10
2015,08,03,09,05,18.10
2015,08,03,09,06,18.10
2015,08,03,09,07,18.20
2015,08,03,09,08,18.20
2015,08,03,09,09,18.20
2015,08,03,09,10,18.20
2015,08,03,09,11,18.20
2015,08,03,09,12,18.30
2015,08,03,09,13,18.20
2015,08,03,09,14,18.20
2015,08,03,09,15,18.30
2015,08,03,09,16,18.30
2015,08,03,09,17,18.40
2015,08,03,09,18,18.40
2015,08,03,09,19,18.50
2015,08,03,09,20,18.60
2015,08,03,09,21,18.70
2015,08,03,09,22,18.70
2015,08,03,09,23,18.80
2015,08,03,09,24,18.80
2015,08,03,09,25,18.80
2015,08,03,09,26,18.80
2015,08,03,09,27,18.80
2015,08,03,09,28,18.80
2015,08,03,09,29,18.80
2015,08,03,09,30,18.80
2015,08,03,09,31,18.90
2015,08,03,09,32,18.90
2015,08,03,09,33,18.90
2015,08,03,09,34,18.90
2015,08,03,09,35,19.00
2015,08,03,09,36,19.00
2015,08,03,09,37,19.10
2015,08,03,09,38,19.10
2015,08,03,09,39,19.20
2015,08,03,09,40,19.20
2015,08,03,09,41,19.30
2015,08,03,09,42,19.30
2015,08,03,09,43,19.30
2015,08,03,09,44,19.40
2015,08,03,09,45,19.40
2015,08,03,09,46,19.40
2015,08,03,09,47,19.40
2015,08,03,09,48,19.50
2015,08,03,09,49,19.50
2015,08,03,09,50,19.50
2015,08,03,09,51,19.60
2015,08,03,09,52,19.60
2015,08,03,09,53,19.60
2015,08,03,09,54,19.70
2015,08,03,09,55,19.80
2015,08,03,09,56,19.80
2015,08,03,09,57,19.90
2015,08,03,09,58,19.90
2015,08,03,09,59,20.00
2015,08,03,10,00,20.00
2015,08,03,10,01,20.10
2015,08,03,10,02,20.10
2015,08,03,10,03,20.20
2015,08,03,10,04,20.20
2015,08,03,10,05,20.20
2015,08,03,10,06,20.30
2015,08,03,10,07,20.30
2015,08,03,10,08,20.30
2015,08,03,10,09,20.30
2015,08,03,10,10,20.30
2015,08,03,10,11,20.40
2015,08,03,10,12,20.40
2015,08,03,10,13,20.50
2015,08,03,10,14,20.50
2015,08,03,10,15,20.60
2015,08,03,10,16,20.60
2015,08,03,10,17,20.60
2015,08,03,10,18,20.70
2015,08,03,10,19,20.70
2015,08,03,10,20,20.70
2015,08,03,10,21,20.70
2015,08,03,10,22,20.70
2015,08,03,10,23,20.70
2015,08,03,10,24,20.60
2015,08,03,10,25,20.70
2015,08,03,10,26,20.70
2015,08,03,10,27,20.60
2015,08,03,10,28,20.60
2015,08,03,10,29,20.60
2015,08,03,10,30,20.60
2015,08,03,10,31,20.60
2015,08,03,10,32,20.60
2015,08,03,10,33,20.60
2015,08,03,10,34,20.60
2015,08,03,10,35,20.70
2015,08,03,10,36,20.70
2015,08,03,10,37,20.80
2015,08,03,10,38,20.90
2015,08,03,10,39,21.00
2015,08,03,10,40,21.00
2015,08,03,10,41,21.10
2015,08,03,10,42,21.20
2015,08,03,10,43,21.20
2015,08,03,10,44,21.20
2015,08,03,10,45,21.20
2015,08,03,10,46,21.20
2015,08,03,10,47,21.30
2015,08,03,10,48,21.30
2015,08,03,10,49,21.40
2015,08,03,10,50,21.50
2015,08,03,10,51,21.50
2015,08,03,10,52,21.60
2015,08,03,10,53,21.60
2015,08,03,10,54,21.60
2015,08,03,10,55,21.60
2015,08,03,10,56,21.60
2015,08,03,10,57,21.70
2015,08,03,10,58,21.70
2015,08,03,10,59,21.80
2015,08,03,11,00,21.80
2015,08,03,11,01,21.80
2015,08,03,11,02,21.70
2015,08,03,11,03,21.60
2015,08,03,11,04,21.60
2015,08,03,11,05,21.60
2015,08,03,11,06,21.70
2015,08,03,11,07,21.70
2015,08,03,11,08,21.70
2015,08,03,11,09,21.80
2015,08,03,11,10,21.90
2015,08,03,11,11,21.90
2015,08,03,11,12,21.90
2015,08,03,11,13,21.90
2015,08,03,11,14,21.90
2015,08,03,11,15,21.90
2015,08,03,11,16,22.00
2015,08,03,11,17,22.00
2015,08,03,11,18,22.10
2015,08,03,11,19,22.20
2015,08,03,11,20,22.20
2015,08,03,11,21,22.20
2015,08,03,11,22,22.30
2015,08,03,11,23,22.20
2015,08,03,11,24,22.20
2015,08,03,11,25,22.20
2015,08,03,11,26,22.20
2015,08,03,11,27,22.20
2015,08,03,11,28,22.10
2015,08,03,11,29,22.10
2015,08,03,11,30,22.10
2015,08,03,11,31,22.10
2015,08,03,11,32,22.10
2015,08,03,11,33,22.10
2015,08,03,11,34,22.10
2015,08,03,11,35,22.10
2015,08,03,11,36,22.20
2015,08,03,11,37,22.20
2015,08,03,11,38,22.30
2015,08,03,11,39,22.40
2015,08,03,11,40,22.50
2015,08,03,11,41,22.60
2015,08,03,11,42,22.70
2015,08,03,11,43,22.70
2015,08,03,11,44,22.70
2015,08,03,11,45,22.80
2015,08,03,11,46,22.80
2015,08,03,11,47,22.70
2015,08,03,11,48,22.70
2015,08,03,11,49,22.70
2015,08,03,11,50,22.70
2015,08,03,11,51,22.70
2015,08,03,11,52,22.70
2015,08,03,11,53,22.70
2015,08,03,11,54,22.70
2015,08,03,11,55,22.60
2015,08,03,11,56,22.70
2015,08,03,11,57,22.70
2015,08,03,11,58,22.70
2015,08,03,11,59,22.80
2015,08,03,12,00,22.90
2015,08,03,12,01,22.90
2015,08,03,12,02,23.00
2015,08,03,12,03,23.00
2015,08,03,12,04,23.10
2015,08,03,12,05,23.10
2015,08,03,12,06,23.20
2015,08,03,12,07,23.20
2015,08,03,12,08,23.10
2015,08,03,12,09,23.00
2015,08,03,12,10,22.90
2015,08,03,12,11,22.80
2015,08,03,12,12,22.80
2015,08,03,12,13,22.70
2015,08,03,12,14,22.80
2015,08,03,12,15,22.80
2015,08,03,12,16,22.90
2015,08,03,12,17,22.90
2015,08,03,12,18,23.00
2015,08,03,12,19,23.00
2015,08,03,12,20,23.10
2015,08,03,12,21,23.20
2015,08,03,12,22,23.20
2015,08,03,12,23,23.20
2015,08,03,12,24,23.20
2015,08,03,12,25,23.20
2015,08,03,12,26,23.30
2015,08,03,12,27,23.30
2015,08,03,12,28,23.40
2015,08,03,12,29,23.40
2015,08,03,12,30,23.40
2015,08,03,12,31,23.40
2015,08,03,12,32,23.30
2015,08,03,12,33,23.20
2015,08,03,12,34,23.10
2015,08,03,12,35,22.90
2015,08,03,12,36,22.80
2015,08,03,12,37,22.70
2015,08,03,12,38,22.70
2015,08,03,12,39,22.60
2015,08,03,12,40,22.50
2015,08,03,12,41,22.50
2015,08,03,12,42,22.40
2015,08,03,12,43,22.40
2015,08,03,12,44,22.30
2015,08,03,12,45,22.30
2015,08,03,12,46,22.10
2015,08,03,12,47,21.90
2015,08,03,12,48,21.70
2015,08,03,12,49,21.60
2015,08,03,12,50,21.50
2015,08,03,12,51,21.50
2015,08,03,12,52,21.50
2015,08,03,12,53,21.50
2015,08,03,12,54,21.50
2015,08,03,12,55,21.50
2015,08,03,12,56,21.40
2015,08,03,12,57,21.30
2015,08,03,12,58,21.30
2015,08,03,12,59,21.30
2015,08,03,13,00,21.30
2015,08,03,13,01,21.30
2015,08,03,13,02,21.30
2015,08,03,13,03,21.30
2015,08,03,13,04,21.30
2015,08,03,13,05,21.20
2015,08,03,13,06,21.10
2015,08,03,13,07,21.00
2015,08,03,13,08,20.90
2015,08,03,13,09,20.80
2015,08,03,13,10,20.70
2015,08,03,13,11,20.60
2015,08,03,13,12,20.60
2015,08,03,13,13,20.50
2015,08,03,13,14,20.50
2015,08,03,13,15,20.50
2015,08,03,13,16,20.50
2015,08,03,13,17,20.40
2015,08,03,13,18,20.50
2015,08,03,13,19,20.50
2015,08,03,13,20,20.40
2015,08,03,13,21,20.40
2015,08,03,13,22,20.40
2015,08,03,13,23,20.40
2015,08,03,13,24,20.40
2015,08,03,13,25,20.40
2015,08,03,13,26,20.40
2015,08,03,13,27,20.40
2015,08,03,13,28,20.40
2015,08,03,13,29,20.40
2015,08,03,13,30,20.30
2015,08,03,13,31,20.30
2015,08,03,13,32,20.30
2015,08,03,13,33,20.30
2015,08,03,13,34,20.20
2015,08,03,13,35,20.20
2015,08,03,13,36,20.10
2015,08,03,13,37,20.00
2015,08,03,13,38,19.90
2015,08,03,13,39,19.80
2015,08,03,13,40,19.80
2015,08,03,13,41,19.70
2015,08,03,13,42,19.80
2015,08,03,13,43,19.80
2015,08,03,13,44,19.90
2015,08,03,13,45,20.00
2015,08,03,13,46,20.10
2015,08,03,13,47,20.20
2015,08,03,13,48,20.30
2015,08,03,13,49,20.40
2015,08,03,13,50,20.50
2015,08,03,13,51,20.50
2015,08,03,13,52,20.40
2015,08,03,13,53,20.30
2015,08,03,13,54,20.30
2015,08,03,13,55,20.20
2015,08,03,13,56,20.20
2015,08,03,13,57,20.20
2015,08,03,13,58,20.20
2015,08,03,13,59,20.20
2015,08,03,14,00,20.20
2015,08,03,14,01,20.20
2015,08,03,14,02,20.20
2015,08,03,14,03,20.20
2015,08,03,14,04,20.30
2015,08,03,14,05,20.30
2015,08,03,14,06,20.30
2015,08,03,14,07,20.30
2015,08,03,14,08,20.30
2015,08,03,14,09,20.30
2015,08,03,14,10,20.30
2015,08,03,14,11,20.40
2015,08,03,14,12,20.40
2015,08,03,14,13,20.40
2015,08,03,14,14,20.40
2015,08,03,14,15,20.40
2015,08,03,14,16,20.50
2015,08,03,14,17,20.50
2015,08,03,14,18,20.60
2015,08,03,14,19,20.70
2015,08,03,14,20,20.80
2015,08,03,14,21,20.80
2015,08,03,14,22,20.90
2015,08,03,14,23,20.90
2015,08,03,14,24,21.00
2015,08,03,14,25,21.00
2015,08,03,14,26,21.00
2015,08,03,14,27,21.00
2015,08,03,14,28,21.10
2015,08,03,14,29,21.10
2015,08,03,14,30,21.10
2015,08,03,14,31,21.10
2015,08,03,14,32,21.10
2015,08,03,14,33,21.20
2015,08,03,14,34,21.20
2015,08,03,14,35,21.30
2015,08,03,14,36,21.40
2015,08,03,14,37,21.60
2015,08,03,14,38,21.70
2015,08,03,14,39,21.80
2015,08,03,14,40,21.90
2015,08,03,14,41,22.00
2015,08,03,14,42,22.10
2015,08,03,14,43,22.20
2015,08,03,14,44,22.40
2015,08,03,14,45,22.40
2015,08,03,14,46,22.40
2015,08,03,14,47,22.50
2015,08,03,14,48,22.50
2015,08,03,14,49,22.60
2015,08,03,14,50,22.70
2015,08,03,14,51,22.70
2015,08,03,14,52,22.70
2015,08,03,14,53,22.70
2015,08,03,14,54,22.70
2015,08,03,14,55,22.80
2015,08,03,14,56,22.80
2015,08,03,14,57,22.80
2015,08,03,14,58,22.90
2015,08,03,14,59,22.90
2015,08,03,15,00,23.00
2015,08,03,15,01,23.10
2015,08,03,15,02,23.20
2015,08,03,15,03,23.30
2015,08,03,15,04,23.30
2015,08,03,15,05,23.30
2015,08,03,15,06,23.40
2015,08,03,15,07,23.30
2015,08,03,15,08,23.40
2015,08,03,15,09,23.40
2015,08,03,15,10,23.50
2015,08,03,15,11,23.60
2015,08,03,15,12,23.60
2015,08,03,15,13,23.70
2015,08,03,15,14,23.80
2015,08,03,15,15,23.80
2015,08,03,15,16,23.90
2015,08,03,15,17,23.80
2015,08,03,15,18,23.70
2015,08,03,15,19,23.70
2015,08,03,15,20,23.70
2015,08,03,15,21,23.70
2015,08,03,15,22,23.70
2015,08,03,15,23,23.80
2015,08,03,15,24,23.80
2015,08,03,15,25,23.90
2015,08,03,15,26,24.00
2015,08,03,15,27,24.10
2015,08,03,15,28,24.20
2015,08,03,15,29,24.30
2015,08,03,15,30,24.30
2015,08,03,15,31,24.30
2015,08,03,15,32,24.20
2015,08,03,15,33,24.00
2015,08,03,15,34,23.90
2015,08,03,15,35,23.80
2015,08,03,15,36,23.70
2015,08,03,15,37,23.70
2015,08,03,15,38,23.80
2015,08,03,15,39,23.80
2015,08,03,15,40,23.90
2015,08,03,15,41,23.90
2015,08,03,15,42,23.90
2015,08,03,15,43,24.00
2015,08,03,15,44,24.00
2015,08,03,15,45,24.00
2015,08,03,15,46,24.10
2015,08,03,15,47,24.10
2015,08,03,15,48,24.10
2015,08,03,15,49,24.10
2015,08,03,15,50,24.10
2015,08,03,15,51,24.20
2015,08,03,15,52,24.30
2015,08,03,15,53,24.30
2015,08,03,15,54,24.30
2015,08,03,15,55,24.20
2015,08,03,15,56,24.20
2015,08,03,15,57,24.20
2015,08,03,15,58,24.20
2015,08,03,15,59,24.20
2015,08,03,16,00,24.30
2015,08,03,16,01,24.30
2015,08,03,16,02,24.40
2015,08,03,16,03,24.50
2015,08,03,16,04,24.60
2015,08,03,16,05,24.70
2015,08,03,16,06,24.80
2015,08,03,16,07,24.80
2015,08,03,16,08,24.80
2015,08,03,16,09,24.80
2015,08,03,16,10,24.90
2015,08,03,16,11,24.90
2015,08,03,16,12,25.00
2015,08,03,16,13,25.10
2015,08,03,16,14,25.10
2015,08,03,16,15,25.10
2015,08,03,16,16,25.20
2015,08,03,16,17,25.30
2015,08,03,16,18,25.30
2015,08,03,16,19,25.30
2015,08,03,16,20,25.30
2015,08,03,16,21,25.30
2015,08,03,16,22,25.10
2015,08,03,16,23,25.00
2015,08,03,16,24,24.80
2015,08,03,16,25,24.60
2015,08,03,16,26,24.50
2015,08,03,16,27,24.40
2015,08,03,16,28,24.30
2015,08,03,16,29,24.30
2015,08,03,16,30,24.30
2015,08,03,16,31,24.30
2015,08,03,16,32,24.30
2015,08,03,16,33,24.40
2015,08,03,16,34,24.30
2015,08,03,16,35,24.30
2015,08,03,16,36,24.40
2015,08,03,16,37,24.40
2015,08,03,16,38,24.40
2015,08,03,16,39,24.50
2015,08,03,16,40,24.50
2015,08,03,16,41,24.50
2015,08,03,16,42,24.50
2015,08,03,16,43,24.60
2015,08,03,16,44,24.70
2015,08,03,16,45,24.80
2015,08,03,16,46,24.80
2015,08,03,16,47,24.80
2015,08,03,16,48,24.70
2015,08,03,16,49,24.60
2015,08,03,16,50,24.50
2015,08,03,16,51,24.40
2015,08,03,16,52,24.40
2015,08,03,16,53,24.40
2015,08,03,16,54,24.30
2015,08,03,16,55,24.30
2015,08,03,16,56,24.30
2015,08,03,16,57,24.30
2015,08,03,16,58,24.20
2015,08,03,16,59,24.10
2015,08,03,17,00,24.10
2015,08,03,17,01,24.10
2015,08,03,17,02,24.00
2015,08,03,17,03,24.00
2015,08,03,17,04,24.10
2015,08,03,17,05,24.00
2015,08,03,17,06,24.00
2015,08,03,17,07,24.00
2015,08,03,17,08,24.00
2015,08,03,17,09,24.10
2015,08,03,17,10,24.10
2015,08,03,17,11,24.10
2015,08,03,17,12,24.20
2015,08,03,17,13,24.10
2015,08,03,17,14,24.10
2015,08,03,17,15,24.10
2015,08,03,17,16,24.00
2015,08,03,17,17,23.90
2015,08,03,17,18,23.90
2015,08,03,17,19,23.90